Погода Оловянная

Погода Оловянная : погода сейчас, прогноз погоды и архив. Всё, что Вы хотите узнать о погоде Оловянная!

Хотите узнать прогноз погоды Оловянная? Тогда Вам сюда: Погода Оловянная

Поиск расширенной информации на нашем сайте:

Другие новости

Новости СМИ2

Главная страница сайта

Новости сайта

03.07.2017

Напоминаем, что на нашем специализированном сайте Метеоцентр.Азия вы можете получить высокодетализированные автоматические прогнозы погоды по пунктам России, СНГ и мира в авиационном формате (включающие направление и скорость ветра, видимость, явления погоды, количество и форму облачности, нижнюю и верхнюю границу облачности).

Рекомендуем: Общение на форуме

Погода Оловянная - сегодня

Время (UTC), дата Ветер
(°,м/с) 
Видим.   Явления Облачность Т
(°С)
Тd
(°С)
f(%) Тe
(°С)
Pmin
(гПа)
dP
(гПа)
Po
(мм)
O2
(г/м3)
Тmin Tmax R s Состояние
почвы
00 22.11.17 260 (З) 20000 м    3/3 2000 м средняя 
[Ac lent]
-17.4 -20.6 76 -21  1022.2  0.7  704  304  -17.6      равномерный
сухой снег
100% 
03 22.11.17 300 (СЗ) 20000 м    4/0 верхняя 
[Cs]
-12.7 -18.7 61 -19  1020.6  704  299           
06 22.11.17 300 (СЗ) 7-11{12}  10 км  слаб. снег  10/10 2000 м 
[Ns]
-12 -17.3 65 -18  1019.5  -0.7  704  298           
09 22.11.17 310 (СЗ) 4{11}  20000 м  {снег}  ясно 
-15.8 -23.3 52 -21  1020.9  -0.1  704  302           
12 22.11.17 300 (СЗ) 20000 м  {снег}  ясно 
-18.4 -25.8 52 -24  1022.4  0.6  704  306    -11.1  0.0     
15 22.11.17 300 (СЗ) 20000 м    ясно 
-19 -26.4 52 -19  1023.1  0.5  704  307           
18 22.11.17 тихо ()   20000 м    ясно 
-19 -26.6 51 -19  1023.3  -0.1  704  307           
21 22.11.17 тихо ()   20000 м    ясно 
-20.8 -26.4 61 -21  1024.2  0.3  705  309           
00 23.11.17 300 (СЗ) 20000 м    3/3 2000 м средняя 
[Ac lent]
-19.7 -26.3 56 -20  1025.2  1.3  706  308  -21.1      равномерный
сухой снег
100% 
03 23.11.17 тихо ()   20000 м    4/0 верхняя 
[Cs]
-16.9 -24 54 -17  1024.9  1.3  706  305  -21.6         
06 23.11.17 350 (С) 20000 м    4/0 верхняя 
[Cs]
-14.1 -23.2 46 -19  1023.8  0.1  706  301           
09 23.11.17 350 (С) 20000 м    4/0 верхняя 
[Cs]
-17.4 -24.5 54 -18  1025.8  0.9  707  306           
12 23.11.17 тихо ()   20000 м    ясно 
-21.4 -25.5 69 -21  1027.2  707  311    -14.1       
15 23.11.17 120 (ЮВ) 20000 м    ясно 
-23.4 -26.3 77 -26  1027.2  -0.7  706  313           
18 23.11.17 180 (Ю) 20000 м    ясно 
-25.8 -28.7 77 -26  1027.3  -0.7  706  316           
21 23.11.17 тихо ()   20000 м    ясно 
-27.9 -30.9 75 -28  1027.4  -0.6  705  318           
00 24.11.17 тихо ()   20000 м    3/3 2000 м средняя 
[Ac lent]
-27.9 -30.8 76 -28  1027.4  705  318  -28.6      равномерный
сухой снег
100% 
03 24.11.17 120 (ЮВ) 20000 м    3/0 верхняя 
[Ci fib]
-22.9 -25.8 77 -23  1025.7  0.1  705  312           
06 24.11.17 тихо ()   20000 м    4/0 верхняя 
[Ci fib]
-17.9 -23.9 59 -18  1022.4  -1.4  704  305           
09 24.11.17 тихо ()   20000 м    ясно 
-21.2 -25.3 69 -21  1023.8  0.2  704  309           
12 24.11.17 тихо ()   20000 м    ясно 
-24.9 -27.6 78 -25  1025.3  0.2  704  314    -17.8       
15 24.11.17 200 (Ю) 20000 м    ясно 
-26.2 -28.9 78 -27  1025.2  -0.5  704  316           
18 24.11.17 140 (ЮВ) н/о    н/о 
-28.5 -31.6 75 -29  1025.6  -0.4  704  318           
21 24.11.17 тихо ()   н/о    н/о 
-29.4 -32.5 75 -29  1025.5  -0.4  704  319           
00 25.11.17 тихо ()   20000 м    4/4 2000 м средняя 
[Ac lent]
-29.1 -32.3 74 -29  1026.8  0.7  704  319  -29.9      равномерный
сухой снег
100% 
Время (UTC), дата Ветер
(°,м/с) 
Видим.   Явления Облачность Т
(°С)
Тd
(°С)
f(%) Тe
(°С)
Pmin
(гПа)
dP
(гПа)
Po
(мм)
O2
(г/м3)
Тmin Tmax R s Состояние
почвы

Для получения пояснительной информации подведите курсор к названию столбца.

ПОГОДА Оловянная - архив

Всё, что Вы хотите узнать о погоде Оловянная - удобно и подробно!

Выберите нужную дату (начиная с 1 января 2015* года) и нажмите кнопку "Найти".
Будут отображены архивные сводки погоды по пункту Оловянная, начиная с указанной даты.


Отображать данные в формате CSV (для использования в таблицах Excel)


Внимание! Наш архив погоды предназначен исключительно для личного некоммерческого использования в познавательных целях. Если Вам необходимы официальные справки о состоянии погоды (для производственных, юридических, коммерческих и т.п. целей), обращайтесь в органы Росгидромета.

*Примечание: данная дата относится к архиву по метеостанциям СССР (Россия, СНГ, Балтия).
Архив по метеостанциям Зарубежной Европы и Азии (кроме Китая) хранится 10 дней, по другим регионам земного шара (Китай, Африка, Америка, Австралия, Океания) - 1 день.

Оловянная - район местоположения метеостанции


Название, широта, долгота, высота метеостанции:
Оловянная 50.9°ш. 115.6°д. 640 м над ур. моря [Российская Федерация]

Дополнительная информация

В oтличие oт бoльшинства пoгoдных сайтoв мы публикуем пoдрoбную метеoинфoрмацию в детальнoм прoфессиoнальнoм фoрмате.

Характеристики температуры и влажнoсти вoздуха измеряются на высoте 2 м в тени вдали oт зданий и деревьев.
Скoрoсть ветра измеряется на высoте 10 м (на урoвне рoста челoвека скoрoсть ветра ниже в 1.5-2 раза). Если метеoстанция нахoдится в гoрoде или в лесу, тo скoрoсть ветра занижена на 2-4 м/с пo сравнению с oткрытым местoм. Скoрoсть ветра над акватoриями крупных рек и oзёр, а также на вершинах хoлмoв на 2-5 м/с выше, чем в oбычных услoвиях.
Атмoсфернoе давление в разных тoчках местнoсти мoжет значительнo oтличаться oт давления на метеoстанции, в зависимoсти oт услoвий рельефа (при пoдъёме на 10 м давление пoнижается примернo на 1 мм рт.ст.).